AA2YS Weather Reports


Display with metric or nautical units.
time (UTC)temp
F
wind
direction
speed
MPH
gust
MPH
rain 1hr
in
rain 24hr
in
rain mn
in
humidity
%
barometer
mb
20200403075019 40 248 2.0 9.0 0.00 0.00 0.00 72 1011.7
20200403074018 40 270 2.0 6.0 0.00 0.00 0.00 72 1011.7
20200403073018 40 270 1.0 8.0 0.00 0.00 0.00 71 1011.8
20200403072018 41 270 1.0 7.0 0.00 0.00 0.00 70 1011.7
20200403071018 41 248 2.0 8.0 0.00 0.00 0.00 70 1011.8
20200403070018 41 248 1.0 4.0 0.00 0.00 0.00 68 1011.8
20200403065019 41 0 2.0 9.0 0.00 0.00 0.00 68 1011.9
20200403064018 41 270 1.0 8.0 0.00 0.00 0.00 67 1011.9
20200403063018 42 0.0 4.0 0.00 0.00 0.00 66 1012.0
20200403062019 42 270 2.0 9.0 0.00 0.00 0.00 66 1012.0
20200403061018 42 270 2.0 8.0 0.00 0.00 0.00 66 1012.0
20200403060018 42 203 1.0 5.0 0.00 0.00 0.00 66 1012.1
20200403055019 42 270 1.0 5.0 0.00 0.00 0.00 66 1012.1
20200403054020 42 248 1.0 6.0 0.00 0.00 0.00 65 1012.1
20200403053018 43 225 1.0 3.0 0.00 0.00 0.00 64 1012.1
20200403052018 42 225 1.0 5.0 0.00 0.00 0.00 64 1012.0
20200403051018 42 248 2.0 8.0 0.00 0.00 0.00 65 1012.0
20200403050018 41 248 1.0 3.0 0.00 0.00 0.00 64 1012.1
20200403045019 41 248 2.0 7.0 0.00 0.00 0.00 63 1012.1
20200403044018 42 248 1.0 3.0 0.00 0.00 0.00 63 1012.0
20200403043018 42 270 1.0 4.0 0.00 0.00 0.00 62 1012.1
20200403042018 42 270 1.0 6.0 0.00 0.00 0.00 61 1012.2
20200403041018 42 270 1.0 4.0 0.00 0.00 0.00 60 1012.2
20200403040023 43 270 1.0 4.0 0.00 0.00 0.00 59 1012.1
20200403035018 43 0.0 2.0 0.00 0.00 0.00 59 1012.1
20200403034018 43 225 1.0 6.0 0.00 0.00 0.00 58 1012.1
20200403033017 44 270 1.0 4.0 0.00 0.00 0.00 57 1012.0
20200403032019 44 270 1.0 6.0 0.00 0.00 0.00 57 1012.1
20200403031017 44 180 1.0 3.0 0.00 0.00 0.00 56 1012.0
20200403030018 44 270 2.0 10.0 0.00 0.00 0.00 56 1011.9
20200403025019 45 203 1.0 4.0 0.00 0.00 0.00 55 1012.0
20200403024017 45 225 2.0 5.0 0.00 0.00 0.00 54 1012.0
20200403023017 45 203 1.0 3.0 0.00 0.00 0.00 53 1012.0
20200403022018 45 338 1.0 8.0 0.00 0.00 0.00 53 1012.1
20200403021019 46 293 1.0 4.0 0.00 0.00 0.00 51 1012.2
20200403020017 46 203 1.0 3.0 0.00 0.00 0.00 51 1012.2
20200403015019 46 225 1.0 4.0 0.00 0.00 0.00 49 1012.1
20200403014019 46 225 1.0 3.0 0.00 0.00 0.00 47 1012.1
20200403013020 47 293 1.0 5.0 0.00 0.00 0.00 44 1012.1
20200403012017 47 225 2.0 6.0 0.00 0.00 0.00 44 1012.1
20200403011018 47 248 2.0 6.0 0.00 0.00 0.00 42 1012.1
20200403010018 47 270 1.0 8.0 0.00 0.00 0.00 42 1012.0
20200403005017 48 270 2.0 10.0 0.00 0.00 0.00 40 1011.9
20200403004019 48 225 1.0 3.0 0.00 0.00 0.00 38 1011.9
20200403003017 48 270 1.0 7.0 0.00 0.00 0.00 38 1011.7
20200403002018 49 225 2.0 8.0 0.00 0.00 0.00 36 1011.6
20200403001020 49 248 2.0 5.0 0.00 0.00 0.00 35 1011.6
20200403000019 49 0 2.0 8.0 0.00 0.00 0.00 34 1011.5
20200402235018 50 338 2.0 8.0 0.00 0.00 0.00 34 1011.5
20200402234017 50 270 2.0 7.0 0.00 0.00 0.00 34 1011.5
20200402233020 51 203 1.0 6.0 0.00 0.00 0.00 37 1011.5
20200402232019 51 270 1.0 5.0 0.00 0.00 0.00 35 1011.6
20200402231017 52 270 2.0 9.0 0.00 0.00 0.00 36 1011.5
20200402230017 52 270 3.0 11.0 0.00 0.00 0.00 36 1011.6
20200402225019 52 293 1.0 3.0 0.00 0.00 0.00 38 1011.6
20200402224019 53 225 2.0 7.0 0.00 0.00 0.00 37 1011.5
20200402223017 53 293 4.0 10.0 0.00 0.00 0.00 36 1011.5
20200402222017 53 225 2.0 9.0 0.00 0.00 0.00 38 1011.5
20200402221019 54 225 3.0 8.0 0.00 0.00 0.00 37 1011.4
20200402220019 54 293 5.0 13.0 0.00 0.00 0.00 36 1011.5
20200402215017 54 338 4.0 10.0 0.00 0.00 0.00 36 1011.5
20200402214019 54 248 3.0 8.0 0.00 0.00 0.00 38 1011.4
20200402213019 54 270 5.0 11.0 0.00 0.00 0.00 38 1011.6
20200402212019 54 270 4.0 12.0 0.00 0.00 0.00 40 1011.9
20200402211019 54 315 3.0 14.0 0.00 0.00 0.00 44 1012.0
20200402210017 54 225 3.0 9.0 0.00 0.00 0.00 44 1012.2
20200402205018 54 248 2.0 7.0 0.00 0.00 0.00 43 1012.2
20200402204019 54 225 4.0 11.0 0.00 0.00 0.00 43 1012.3
20200402203019 54 293 2.0 9.0 0.00 0.00 0.00 43 1012.4
20200402202018 54 248 4.0 10.0 0.00 0.00 0.00 44 1012.4
20200402201019 54 315 5.0 12.0 0.00 0.00 0.00 43 1012.5
20200402200019 55 270 4.0 12.0 0.00 0.00 0.00 43 1012.6
20200402195019 56 68 2.0 9.0 0.00 0.00 0.00 40 1012.6
20200402194020 54 270 3.0 12.0 0.00 0.00 0.00 44 1012.8
20200402193019 54 248 5.0 10.0 0.00 0.00 0.00 46 1012.8
20200402192019 54 293 4.0 16.0 0.00 0.00 0.00 41 1012.8
20200402191019 53 270 4.0 10.0 0.00 0.00 0.00 45 1012.9
20200402190017 54 315 3.0 12.0 0.00 0.00 0.00 45 1012.9
20200402185019 53 248 4.0 13.0 0.00 0.00 0.00 47 1013.1
20200402184019 53 0 4.0 12.0 0.00 0.00 0.00 43 1013.2
20200402183018 52 338 4.0 15.0 0.00 0.00 0.00 47 1013.3
20200402182019 52 248 3.0 10.0 0.00 0.00 0.00 49 1013.3
20200402181019 52 270 3.0 10.0 0.00 0.00 0.00 47 1013.5
20200402180019 51 270 4.0 13.0 0.00 0.00 0.00 48 1013.5
20200402175020 52 225 4.0 13.0 0.00 0.00 0.00 49 1013.7
20200402174019 51 315 4.0 12.0 0.00 0.00 0.00 47 1013.8
20200402173022 51 23 2.0 7.0 0.00 0.00 0.00 51 1013.9
20200402172019 51 0 4.0 9.0 0.00 0.00 0.00 49 1014.0
20200402171019 51 23 5.0 14.0 0.00 0.00 0.00 52 1014.1
20200402170019 49 293 3.0 10.0 0.00 0.00 0.00 50 1014.2
20200402165019 49 270 3.0 10.0 0.00 0.00 0.00 52 1014.3
20200402164019 48 45 4.0 9.0 0.00 0.00 0.00 51 1014.3
20200402163024 48 293 4.0 10.0 0.00 0.00 0.00 53 1014.5
20200402162019 49 293 4.0 11.0 0.00 0.00 0.00 54 1014.6
20200402161019 48 338 3.0 8.0 0.00 0.00 0.00 53 1014.5
20200402160019 47 135 2.0 10.0 0.00 0.00 0.00 56 1014.5
20200402155019 47 338 3.0 14.0 0.00 0.00 0.00 53 1014.7
20200402154020 47 203 3.0 7.0 0.00 0.00 0.00 54 1014.8
20200402153019 48 23 5.0 13.0 0.00 0.00 0.00 55 1014.9
20200402152019 47 315 2.0 5.0 0.00 0.00 0.00 54 1014.8
20200402151019 46 158 3.0 10.0 0.00 0.00 0.00 55 1014.9
20200402150019 45 45 4.0 11.0 0.00 0.00 0.00 57 1014.8
20200402145019 44 23 3.0 8.0 0.00 0.00 0.00 61 1014.9
20200402144019 44 23 4.0 10.0 0.00 0.00 0.00 61 1014.8
20200402143019 44 0 3.0 15.0 0.00 0.00 0.00 61 1014.9
20200402142019 43 23 4.0 11.0 0.00 0.00 0.00 61 1014.9
20200402141019 42 23 3.0 10.0 0.00 0.00 0.00 63 1014.9
20200402140019 42 0 2.0 9.0 0.00 0.00 0.00 63 1015.0
20200402135019 42 23 2.0 9.0 0.00 0.00 0.00 66 1014.9
20200402134020 41 23 2.0 10.0 0.00 0.00 0.00 68 1015.0
20200402133019 41 0 2.0 9.0 0.00 0.00 0.00 69 1014.9
20200402132019 40 0.0 2.0 0.00 0.00 0.00 73 1014.8
20200402131019 39 293 1.0 5.0 0.00 0.00 0.00 79 1014.8
20200402130019 37 0.0 3.0 0.00 0.00 0.00 87 1014.7
20200402125018 34 0.0 2.0 0.00 0.00 0.00 93 1014.7
20200402124019 32 0.0 0.0 0.00 0.00 0.00 93 1014.8
20200402123019 31 0.0 0.0 0.00 0.00 0.00 93 1014.7
20200402122020 31 0.0 0.0 0.00 0.00 0.00 93 1014.7
20200402121019 30 0.0 0.0 0.00 0.00 0.00 94 1014.7
20200402120020 29 0.0 0.0 0.00 0.00 0.00 94 1014.6
20200402115019 28 0.0 0.0 0.00 0.00 0.00 94 1014.6
20200402114018 28 0.0 0.0 0.00 0.00 0.00 94 1014.5
20200402113019 27 0.0 0.0 0.00 0.00 0.00 94 1014.4
20200402112019 27 0.0 0.0 0.00 0.00 0.00 94 1014.2
20200402111019 26 0.0 0.0 0.00 0.00 0.00 94 1014.1
20200402110018 26 0.0 0.0 0.00 0.00 0.00 94 1013.9
20200402105019 26 0.0 0.0 0.00 0.00 0.00 94 1013.9
20200402104019 26 0.0 0.0 0.00 0.00 0.00 94 1013.8
20200402103018 26 0.0 0.0 0.00 0.00 0.00 93 1013.5
20200402102019 26 0.0 0.0 0.00 0.00 0.00 94 1013.3
20200402101019 26 0.0 0.0 0.00 0.00 0.00 93 1013.2
20200402100019 26 0.0 0.0 0.00 0.00 0.00 93 1013.1
20200402095019 26 0.0 0.0 0.00 0.00 0.00 93 1013.1
20200402094019 26 0.0 0.0 0.00 0.00 0.00 93 1013.1
20200402093020 26 0.0 0.0 0.00 0.00 0.00 93 1013.1
20200402091019 27 0.0 0.0 0.00 0.00 0.00 92 1013.1
20200402090019 27 0.0 0.0 0.00 0.00 0.00 92 1013.2
20200402085019 27 0.0 0.0 0.00 0.00 0.00 92 1013.1
20200402084021 27 0.0 0.0 0.00 0.00 0.00 92 1013.1
20200402083020 27 0.0 0.0 0.00 0.00 0.00 92 1013.1
20200402082019 27 0.0 0.0 0.00 0.00 0.00 92 1013.1
20200402081018 28 0.0 0.0 0.00 0.00 0.00 91 1013.1
20200402080019 28 0.0 0.0 0.00 0.00 0.00 92 1013.2